Wind_Speed
45 45 45 46 46 47 48 50 51 53 52 53 54 55 54 54 54 54 54 53 54 56 57 58 58 58 58 59 59 59 58 57 56 55 53 52 52 52 52 52 53 52 51 50 49 50 50 50 51 51 51 52 54 56 56 55 53 51 49 48 46 44 44 44 45 47 49 51 51 52 52 51 52 53 54 55 55 56 56 57 57 57 58 58 59
50 48 47 47 48 48 49 50 51 52 53 52 53 53 54 54 54 54 54 54 54 55 56 57 58 59 59 59 58 58 58 57 55 54 54 54 54 54 54 55 55 55 54 52 52 52 52 53 53 54 54 56 59 61 61 59 57 55 52 51 49 48 47 47 47 47 49 50 52 54 55 54 54 54 55 55 57 58 58 59 60 61 61 61 61
48 47 48 49 50 50 49 49 50 52 53 53 53 53 54 55 56 56 56 57 57 57 57 58 58 59 58 58 57 57 57 57 56 56 56 56 57 57 57 56 56 55 55 54 53 53 54 55 57 58 59 61 62 62 61 60 58 55 53 51 51 52 52 51 50 49 49 50 51 53 56 56 56 57 57 57 58 58 58 59 60 61 62 62 62
42 42 45 48 47 44 42 42 43 46 48 51 54 53 54 55 56 58 59 59 60 60 60 60 60 60 60 59 59 59 58 59 59 59 60 60 60 59 59 58 56 55 55 54 55 56 58 59 61 63 64 63 61 59 59 58 56 54 52 51 51 52 53 52 50 50 51 51 51 52 54 56 57 58 59 59 59 59 60 60 60 61 62 62 62
40 38 41 45 40 29 25 28 33 38 43 46 50 52 52 53 54 55 57 59 60 61 62 62 62 62 62 62 61 60 61 61 62 63 62 61 61 60 59 58 56 56 57 58 58 59 61 63 63 63 62 59 57 56 57 56 53 52 52 50 47 46 47 48 47 48 50 52 52 52 53 54 56 58 59 60 60 60 61 61 62 62 62 63 63
42 39 38 42 41 32 24 24 26 32 36 38 41 45 45 47 49 52 54 57 58 60 60 61 62 62 62 62 62 62 63 64 64 64 63 62 61 61 60 57 55 55 57 57 58 59 60 61 61 60 58 57 56 55 53 51 50 51 52 49 45 44 46 47 45 44 45 49 52 53 53 53 54 56 58 59 59 60 61 61 62 62 63 63 64
45 46 44 43 44 40 37 37 37 39 41 39 38 39 38 40 44 48 52 54 55 56 57 58 58 59 59 59 60 62 65 66 66 65 65 63 63 62 60 58 57 58 59 58 58 59 60 62 62 61 60 58 57 55 52 51 51 51 51 50 49 48 48 46 44 43 43 45 48 50 51 52 53 54 56 57 57 58 58 59 60 61 61 62 62
40 44 48 50 50 47 48 49 45 44 48 48 45 43 40 39 40 44 49 52 51 51 52 53 54 55 57 59 62 65 67 68 68 68 68 67 65 64 62 61 63 65 64 63 64 65 65 65 65 64 63 61 58 55 54 53 52 50 49 50 51 51 49 47 47 47 45 44 44 45 46 48 51 52 53 54 55 55 55 55 56 56 57 58 59
39 39 43 48 52 52 53 54 51 48 49 52 53 53 48 44 43 45 47 50 51 51 52 55 58 60 62 64 67 69 69 70 70 69 69 68 67 66 66 68 70 69 68 67 68 68 68 67 66 65 64 62 59 56 54 53 52 50 50 51 52 51 50 50 51 52 50 48 46 46 46 46 48 49 50 51 51 51 51 50 50 51 52 53 55
43 41 42 45 47 50 54 57 57 57 56 56 58 61 59 56 53 51 50 51 55 57 58 61 64 66 68 68 69 70 69 69 70 70 71 71 71 71 71 73 74 73 72 69 68 68 69 67 65 63 62 60 58 56 54 52 51 51 51 51 52 52 52 53 56 57 56 54 52 52 51 50 49 50 50 51 51 50 49 48 47 48 49 51 53
45 45 47 47 45 47 53 57 59 61 61 59 57 58 58 56 53 52 52 55 58 59 61 64 66 68 70 70 70 71 70 71 71 72 72 73 73 74 74 75 75 76 74 72 69 67 67 66 63 61 60 58 57 55 53 52 52 51 50 49 50 53 56 58 61 62 62 61 58 57 55 54 54 54 53 52 51 52 50 49 50 52 53 54 56
48 48 50 51 49 48 48 48 48 50 54 55 51 49 50 51 51 52 53 57 61 62 63 66 67 68 69 70 70 71 72 73 73 74 74 74 75 75 75 76 76 75 74 73 70 68 66 65 63 61 60 59 58 57 55 54 53 52 51 50 51 55 60 64 67 68 68 67 66 64 62 60 61 61 59 55 54 54 53 54 57 59 59 59 60
54 54 54 54 55 53 49 45 40 37 41 47 47 47 50 54 56 58 59 63 68 70 71 72 73 73 73 73 74 75 76 77 77 77 77 77 77 76 76 76 75 75 74 73 71 70 67 65 64 64 63 63 63 62 61 59 57 56 56 57 59 63 68 73 75 76 76 75 74 74 72 70 69 69 66 61 57 57 58 61 64 64 64 63 63
64 63 61 61 61 59 57 55 50 45 45 49 52 55 59 62 65 68 71 75 78 79 79 79 78 78 77 77 78 79 79 80 80 79 78 77 76 75 74 74 75 74 74 74 73 72 70 68 66 66 66 66 66 67 67 67 66 66 66 68 71 75 79 82 83 83 82 80 78 78 76 76 75 74 71 66 62 61 62 64 66 67 67 67 65
70 69 67 67 67 66 64 63 63 61 59 60 62 67 71 74 77 81 83 84 84 84 84 83 82 82 81 80 80 80 80 80 79 78 78 77 77 76 75 75 75 75 75 74 74 73 73 72 70 69 68 69 69 69 70 72 74 75 76 78 81 84 84 83 82 81 80 77 76 74 73 72 73 73 71 68 66 64 64 65 66 68 68 66 64
71 71 71 71 72 72 72 71 71 71 72 72 74 77 80 83 85 87 88 87 87 87 87 87 87 86 84 83 82 81 81 82 81 81 81 81 81 80 78 77 76 75 75 75 75 75 75 75 73 72 72 72 72 72 73 76 78 81 82 84 85 83 80 77 74 74 74 73 71 70 68 68 68 69 69 68 67 66 66 67 67 68 67 65 64
71 72 73 75 76 76 77 78 79 80 81 82 83 85 86 87 88 89 90 90 90 90 90 90 88 87 85 84 83 82 82 83 83 83 83 83 83 83 82 80 79 78 77 77 77 78 79 78 76 77 78 78 78 79 79 80 81 82 82 81 79 75 72 70 69 68 69 70 70 69 68 67 67 67 67 67 67 68 69 69 69 68 65 64 63
74 74 75 76 78 79 81 83 85 86 87 88 88 89 88 88 89 90 90 90 89 89 89 88 87 86 85 84 83 83 83 84 85 84 85 85 85 85 85 84 83 82 81 81 81 82 82 82 81 81 82 82 81 81 80 78 78 78 76 74 72 71 70 68 67 67 67 68 69 69 68 67 67 67 66 66 66 68 68 68 67 65 63 61 60
76 76 76 76 77 79 81 83 85 86 86 87 87 87 87 87 87 87 87 87 87 86 86 85 85 84 84 84 84 83 83 84 85 85 86 86 86 86 86 85 84 82 80 79 79 79 79 79 79 79 79 78 78 77 76 75 74 74 73 72 71 71 70 69 68 68 68 68 69 68 68 67 67 66 66 65 65 65 65 64 62 60 59 59 58
79 78 77 77 77 79 80 82 83 84 85 85 85 85 85 85 85 85 86 85 85 84 83 82 81 80 79 80 81 81 81 82 83 83 83 83 83 82 82 81 79 77 75 75 76 76 75 76 76 77 77 76 75 75 75 75 74 73 72 72 72 72 72 71 71 71 70 70 70 70 70 69 68 67 67 66 66 65 65 63 61 59 59 59 59
79 78 79 79 79 80 81 81 82 83 83 84 83 83 83 83 83 83 83 82 82 81 80 79 77 76 75 76 76 77 77 78 78 78 78 78 79 78 79 79 78 76 76 76 77 78 77 77 78 79 78 77 76 75 75 75 75 74 73 73 72 73 74 74 73 73 73 73 73 73 73 72 71 70 69 68 67 67 67 65 63 62 62 61 61
79 78 78 78 78 78 79 79 79 79 79 80 80 80 79 79 79 78 79 78 77 76 76 75 74 73 72 73 73 74 74 75 76 76 77 77 78 79 80 81 81 79 78 79 80 80 81 81 81 82 81 79 78 77 77 77 77 76 76 75 74 74 75 75 75 75 75 75 75 75 74 74 73 73 72 71 70 70 69 68 67 66 64 63 63
78 77 77 77 77 77 77 77 77 77 77 77 78 78 78 78 78 78 78 77 77 75 74 73 73 72 71 71 72 72 72 73 75 77 78 79 80 81 83 84 84 82 81 81 82 82 83 85 87 86 84 82 81 81 81 81 80 80 79 78 77 76 76 77 77 77 77 77 76 76 76 75 75 75 74 73 73 73 73 72 71 69 68 66 65
76 76 77 77 77 77 77 78 78 78 78 78 78 79 80 81 81 81 81 81 81 79 78 77 77 77 75 74 73 72 72 73 74 76 80 83 83 84 86 88 88 86 84 83 84 85 85 88 90 90 89 87 86 85 85 84 84 84 83 82 81 80 80 80 80 80 79 78 78 77 77 76 76 76 75 75 74 74 74 74 73 73 71 69 68
76 77 77 78 78 78 79 79 80 80 81 81 81 82 83 84 84 85 85 85 85 84 83 82 82 81 79 79 77 74 73 74 74 75 78 83 86 87 88 90 91 90 88 86 87 88 87 88 90 91 92 91 91 90 90 89 88 87 86 85 84 84 83 83 83 82 81 80 79 78 77 77 77 76 76 76 76 75 74 75 74 74 73 72 71
77 78 78 79 79 80 80 81 81 82 83 83 84 84 85 86 87 88 88 89 89 89 89 88 88 87 85 85 84 83 81 80 79 78 78 81 85 87 89 90 90 91 90 89 89 89 89 88 89 91 92 93 94 95 94 93 91 90 88 87 86 86 85 85 84 83 82 80 79 78 77 77 77 76 76 76 76 75 75 75 74 74 73 73 72
78 79 80 80 81 82 82 83 83 84 85 85 86 87 88 88 89 90 91 91 92 93 93 92 92 92 92 91 90 90 89 88 86 84 81 80 81 85 88 89 89 90 91 90 89 89 89 89 89 90 91 93 95 96 96 95 93 91 89 87 86 85 85 85 84 82 81 80 79 78 77 77 76 75 75 74 74 74 74 74 74 74 73 72 71
80 81 81 82 83 84 84 85 86 86 87 88 89 90 90 91 91 92 93 94 94 94 94 94 94 93 93 93 92 91 90 89 88 87 85 82 82 87 91 90 89 90 93 93 91 90 89 88 89 90 91 93 95 96 95 94 93 90 87 85 84 84 84 83 82 81 80 79 78 77 77 77 76 74 73 72 72 71 71 72 72 72 72 71 70
83 84 85 85 86 87 88 88 89 90 90 91 92 93 94 94 94 95 95 96 96 96 95 95 95 94 94 92 91 91 90 90 90 89 87 84 84 90 94 92 89 90 93 94 93 91 90 88 89 90 92 93 94 94 93 92 90 87 84 83 83 82 82 81 80 79 78 78 77 76 76 75 74 73 71 70 69 69 68 68 69 69 69 68 68
87 88 89 90 90 91 92 93 93 94 95 95 96 97 97 98 98 98 98 99 98 97 96 96 95 95 94 92 91 90 89 90 90 90 88 86 85 88 92 92 90 90 92 94 94 92 89 88 89 90 91 91 91 91 90 89 86 83 81 80 80 79 79 78 78 78 77 77 76 76 75 74 73 71 69 68 67 66 66 65 65 65 65 65 65
92 93 93 94 95 96 96 97 97 98 98 98 98 99 99 99 98 97 97 98 97 96 95 94 93 92 91 90 89 88 87 88 89 89 88 87 85 87 89 90 89 89 90 92 93 92 90 89 89 89 90 89 88 87 86 84 81 78 76 75 74 75 75 75 76 76 76 76 75 75 74 73 71 69 68 67 66 65 64 63 63 63 63 62 62
95 96 97 97 98 99 99 99 100 99 99 99 98 98 97 97 96 95 94 94 94 94 93 91 90 89 88 87 86 86 85 85 86 86 85 84 83 84 84 85 85 86 86 87 90 91 90 89 88 88 88 87 85 82 79 76 72 69 67 66 67 67 68 69 70 71 72 73 73 73 73 72 70 68 67 66 64 63 62 61 61 61 61 60 59
97 98 98 99 99 99 100 99 99 99 98 97 96 95 95 94 94 93 92 91 90 89 89 88 87 85 83 82 81 81 80 80 80 81 80 79 79 79 79 79 79 80 80 81 84 86 86 86 86 85 85 84 80 75 71 67 63 60 59 60 60 60 60 60 61 63 64 66 67 69 70 70 69 68 67 65 64 63 62 60 60 59 58 58 56
96 96 97 97 97 97 97 97 96 95 95 94 93 92 92 91 90 90 89 88 86 84 82 81 81 80 79 78 76 75 75 74 74 75 76 76 75 74 74 74 74 74 74 76 79 81 81 81 81 81 81 80 75 69 64 61 58 56 56 56 56 55 55 54 54 54 55 57 60 62 63 64 65 65 64 63 62 61 60 59 58 57 56 55 54
91 91 92 92 92 92 91 91 90 90 89 89 88 87 87 86 85 84 83 81 80 79 78 75 74 74 74 73 72 71 70 69 69 70 71 72 71 70 69 69 69 70 71 73 75 76 76 77 77 78 78 75 70 64 60 59 57 55 54 54 53 53 52 52 51 50 51 52 54 56 57 57 58 58 58 58 57 57 56 55 54 53 53 52 51
83 84 84 84 85 84 84 83 83 83 82 82 81 81 80 79 79 77 75 73 73 73 73 72 70 68 68 68 68 67 65 64 65 66 66 67 66 65 64 65 66 67 68 70 71 71 71 72 74 76 75 71 65 59 57 57 56 54 53 52 50 50 50 51 50 48 49 51 52 52 52 53 53 53 53 52 52 52 51 50 49 48 48 47 46
76 76 77 77 77 76 76 76 75 75 75 74 74 74 74 73 72 70 68 67 66 66 67 67 66 64 63 63 63 62 62 61 61 61 62 62 61 61 61 61 62 64 64 65 67 67 67 69 72 73 71 66 60 55 55 56 55 53 51 50 49 48 49 50 48 46 47 49 50 49 49 49 49 49 48 47 47 46 45 45 44 43 42 41 40
70 70 70 70 70 69 69 69 68 68 68 68 69 68 68 67 66 65 64 63 63 62 62 62 62 61 59 58 58 58 58 58 57 57 58 57 56 57 57 57 58 59 60 61 63 65 66 68 69 69 67 63 57 53 54 54 53 51 49 48 47 49 50 49 45 44 46 48 47 46 46 46 45 44 43 43 42 41 40 39 39 37 36 36 36
65 65 65 65 64 64 64 64 64 64 64 64 64 64 64 62 61 61 60 59 59 58 58 57 57 56 55 54 53 52 53 53 53 53 53 53 52 53 54 54 54 55 56 58 61 62 62 64 65 65 64 61 55 52 51 50 50 49 46 45 47 50 51 47 43 43 45 45 44 43 43 43 41 40 39 38 37 36 35 35 34 33 32 32 32
62 62 62 61 61 61 61 61 61 61 61 61 61 60 59 58 57 57 57 56 55 55 54 53 52 52 51 50 49 48 48 49 50 50 50 50 50 51 51 51 51 53 55 56 56 56 57 59 60 61 61 58 53 49 47 47 46 45 43 43 48 52 50 45 42 43 44 43 41 41 41 40 39 37 36 35 34 33 32 31 30 29 29 29 29
59 59 59 58 58 58 58 58 58 58 58 58 58 57 55 55 55 55 54 53 52 52 50 49 49 49 48 47 47 46 46 47 48 49 49 48 48 50 50 49 49 51 52 52 51 52 54 56 58 59 58 54 49 46 44 42 41 41 42 46 51 51 46 41 41 43 43 41 40 39 38 37 36 35 34 33 32 31 30 29 28 27 27 27 27
56 56 56 55 55 55 55 55 55 55 55 55 55 54 52 52 53 52 51 50 50 49 47 47 46 46 46 45 44 44 45 45 46 46 46 45 46 46 47 46 47 47 48 48 49 50 52 54 55 55 53 50 47 43 39 37 38 41 46 50 51 47 42 40 41 42 41 39 38 37 36 35 34 33 32 31 31 30 29 27 26 26 26 26 25
53 52 52 52 52 52 52 52 52 52 53 53 52 51 49 49 50 49 48 48 47 46 45 44 43 43 42 42 41 42 42 42 42 42 42 42 43 43 44 44 44 44 44 46 47 49 50 50 51 50 48 46 42 38 35 36 40 45 49 51 48 43 41 40 41 41 40 38 36 35 34 34 33 32 31 30 30 29 28 27 26 25 25 24 24
49 49 49 49 49 49 49 49 50 50 50 50 49 47 46 46 47 46 45 45 45 43 42 41 40 39 39 39 39 39 39 39 39 39 39 40 41 41 41 41 41 41 42 43 44 45 46 46 44 43 42 40 36 33 33 37 42 48 52 51 45 41 40 41 40 39 38 36 34 34 33 33 32 31 30 30 29 28 27 26 25 24 23 23 23
46 46 46 46 46 46 46 46 46 47 47 47 46 44 43 43 44 44 42 42 42 40 39 38 37 36 35 35 35 35 35 35 36 36 36 37 37 37 37 38 38 39 41 41 41 41 42 41 39 38 37 35 33 33 34 38 45 52 53 49 43 40 40 40 39 38 36 34 33 33 32 32 31 30 29 29 29 27 26 25 24 23 23 22 22
43 43 43 43 43 43 44 43 43 43 43 44 44 42 41 40 41 41 40 39 38 38 37 35 34 33 32 31 31 32 32 33 33 33 34 35 36 36 36 36 37 38 39 39 39 39 38 37 35 35 35 35 35 36 39 45 50 53 51 45 41 40 39 37 36 35 34 32 32 32 32 31 30 29 29 29 28 27 25 24 23 23 23 22 22
40 40 40 40 41 41 41 41 40 40 40 41 42 41 40 38 38 38 37 36 35 35 34 32 31 30 29 29 29 30 30 31 31 32 33 33 34 35 35 35 35 35 36 36 37 37 35 34 34 35 36 37 39 42 46 50 52 50 46 42 39 37 35 34 33 33 32 32 32 31 31 30 29 29 29 29 28 26 25 24 23 23 23 22 22
38 38 38 38 38 38 39 39 38 38 38 38 40 40 39 37 35 35 35 34 33 32 31 30 29 28 27 27 27 28 28 29 29 30 31 31 32 32 33 33 33 33 33 34 34 35 34 34 34 36 38 40 42 45 47 48 47 45 43 41 38 34 33 33 33 32 32 32 31 31 31 30 29 29 29 29 27 26 25 24 23 23 23 22 22
35 36 36 36 36 36 36 36 36 36 36 36 37 38 38 36 34 33 33 32 31 30 30 29 28 26 26 26 26 26 27 28 28 28 29 29 29 30 31 31 31 31 32 32 32 33 33 33 35 37 39 40 42 42 43 43 43 42 42 39 36 35 34 34 33 33 32 32 31 31 31 30 29 29 29 28 27 26 25 24 23 23 23 23 22
33 34 34 34 35 35 34 34 34 34 34 34 34 36 37 36 33 32 31 31 30 29 28 28 27 26 25 24 24 24 25 25 26 27 27 28 28 28 29 30 30 30 30 31 31 31 32 34 35 37 38 38 38 38 39 39 39 39 38 37 35 34 34 33 33 33 32 32 32 31 30 29 29 29 29 28 27 26 25 24 24 24 23 23 23
32 32 33 33 33 33 33 33 33 33 32 32 32 33 34 35 33 31 30 30 29 29 28 27 26 25 25 24 22 22 22 22 23 24 25 26 26 26 26 27 28 29 29 30 30 30 32 33 35 35 35 35 35 35 35 36 36 36 35 34 34 34 34 33 33 33 33 32 32 31 31 30 29 29 29 28 27 26 25 25 25 24 24 24 23
Wind_Direction
265 268 268 266 268 271 271 270 269 269 269 269 269 270 271 271 271 272 274 275 275 275 276 277 277 277 278 279 280 281 282 283 283 284 285 285 286 288 289 290 291 291 291 290 288 288 286 284 284 285 287 289 290 289 289 290 291 289 287 285 282 279 276 274 273 272 271 269 266 263 261 260 259 259 259 258 258 258 259 259 260 262 263 265 266
267 268 268 266 267 270 273 274 274 272 271 270 269 269 269 269 270 270 270 271 272 273 275 275 276 277 278 280 281 282 282 283 284 284 285 286 286 288 289 290 290 290 290 289 287 286 285 285 285 284 286 288 290 289 289 289 290 289 287 285 284 283 280 278 276 274 273 271 269 266 263 260 259 259 259 259 259 259 260 260 261 262 263 264 266
265 266 267 266 268 271 275 278 277 275 272 270 268 267 266 265 266 267 267 268 270 271 273 274 275 277 278 279 280 281 282 283 283 284 284 285 286 288 289 290 290 290 289 287 284 283 283 283 283 283 284 288 289 288 288 288 289 288 286 284 284 284 282 279 277 276 274 272 270 268 266 263 261 259 259 259 260 260 260 261 261 262 263 263 265
261 263 262 263 267 274 279 280 281 279 275 271 268 266 264 263 263 264 265 267 268 270 272 273 275 276 277 278 279 280 281 282 282 282 282 284 286 287 289 290 289 288 287 285 283 283 283 283 283 285 286 289 289 288 288 288 287 285 284 284 285 284 281 279 278 276 274 272 270 268 267 266 264 261 260 259 260 260 261 261 262 263 264 264 264
255 256 257 258 260 266 274 278 282 283 280 276 272 270 269 268 268 267 267 267 267 269 270 271 273 275 276 278 279 280 281 281 281 282 284 285 287 287 288 289 289 288 287 286 285 285 286 286 286 287 288 289 289 289 289 286 284 284 285 286 286 285 285 284 282 278 276 273 270 268 266 265 264 263 262 260 260 261 261 262 263 264 264 265 265
242 244 250 253 250 245 246 252 258 266 273 276 277 275 274 274 273 272 270 269 268 267 268 270 271 273 275 277 279 280 280 281 282 284 285 285 285 286 286 286 288 290 290 288 288 288 288 288 288 288 289 290 290 290 288 284 283 287 288 288 287 287 288 288 286 284 283 279 274 270 267 266 264 264 263 262 262 262 263 264 264 265 265 266 266
240 240 241 243 243 240 242 248 250 252 259 267 272 271 269 270 272 274 273 271 270 269 269 270 272 274 276 278 280 281 282 284 285 286 285 285 284 284 284 282 286 291 291 290 290 291 290 290 290 290 289 289 289 289 285 282 284 288 288 287 288 290 290 288 286 287 289 286 279 273 270 268 267 266 266 265 264 264 264 265 265 266 266 267 267
243 243 240 238 239 240 243 247 250 252 257 262 267 268 267 267 270 273 273 273 273 272 270 270 272 275 277 280 282 283 284 285 286 286 286 285 285 285 283 282 285 289 290 289 290 290 290 291 291 290 290 289 289 288 285 284 285 286 285 285 287 290 290 289 288 290 293 292 287 281 277 274 272 270 269 269 268 267 267 267 267 267 268 268 268
242 245 244 241 242 244 242 240 245 251 254 257 262 264 263 264 266 268 268 269 271 272 271 273 275 276 278 280 282 283 283 284 284 284 285 285 285 285 284 284 286 288 288 288 288 289 289 290 290 290 290 289 289 287 285 284 285 285 284 284 286 287 287 287 290 292 293 291 288 286 284 283 280 276 272 270 270 269 269 268 268 268 269 269 269
239 239 243 243 243 243 238 235 241 249 253 256 259 259 259 261 264 264 262 262 265 268 271 275 278 279 280 281 281 281 281 280 281 281 282 283 283 284 284 285 286 287 287 286 286 287 288 288 289 289 288 287 287 285 284 283 284 284 285 285 286 287 287 288 290 291 291 290 287 285 285 284 284 283 279 274 270 268 268 268 269 271 273 273 272
238 236 240 245 246 244 241 239 242 247 251 254 257 260 262 264 262 259 258 261 264 268 272 275 277 279 280 280 280 280 279 279 279 279 280 281 282 283 284 285 286 286 285 285 284 284 285 286 286 285 284 283 282 281 280 280 281 282 282 283 284 286 288 290 290 290 290 289 287 285 284 283 283 285 284 279 274 269 267 268 273 277 278 277 276
243 243 246 249 250 248 245 243 244 247 250 251 254 259 262 261 257 256 258 261 264 268 272 275 276 276 277 277 277 278 278 279 279 279 280 280 281 282 283 283 284 284 284 284 283 283 283 283 282 281 279 278 277 276 276 277 278 278 278 278 280 283 286 288 289 289 289 288 286 285 284 282 282 284 284 281 277 273 270 271 276 279 280 280 279
250 252 252 251 251 250 247 241 239 243 246 245 246 250 253 255 257 258 260 264 267 270 271 273 274 274 274 274 275 276 277 278 279 279 280 280 281 281 282 282 282 282 283 283 283 282 282 281 280 279 278 276 275 274 273 273 274 275 274 275 277 279 282 284 285 285 285 284 284 284 283 282 281 282 283 281 278 275 273 273 275 277 279 280 280
252 254 254 253 252 252 250 245 240 237 237 238 240 244 249 254 258 262 265 268 271 272 272 273 273 273 274 274 275 276 277 278 279 279 280 280 280 280 281 281 282 282 282 282 282 282 281 280 279 278 277 275 275 274 272 272 272 273 273 274 275 278 280 282 282 282 282 281 280 280 280 280 280 281 282 281 279 276 274 274 275 276 278 279 278
250 250 251 251 250 250 250 248 245 242 239 240 242 247 251 255 259 264 267 269 271 272 273 273 273 273 274 275 275 276 277 277 278 278 278 278 278 278 279 279 279 280 280 280 280 280 280 279 279 278 276 275 275 274 272 271 272 273 273 274 276 278 280 281 281 281 281 280 280 280 280 280 280 280 281 281 280 278 277 276 276 277 279 279 277
251 250 249 249 249 249 249 249 247 246 245 246 248 252 256 259 262 265 267 269 270 271 272 272 273 273 274 274 275 275 276 276 276 276 276 276 276 276 276 276 276 277 277 278 278 278 278 279 278 277 276 275 275 273 272 272 272 273 275 276 278 279 281 281 281 281 281 282 282 282 282 281 281 280 280 280 280 280 280 279 279 279 279 278 276
253 252 251 250 250 250 251 251 251 251 252 253 254 256 259 261 263 265 266 268 269 270 271 271 271 272 272 273 273 273 274 274 274 274 275 275 275 275 275 275 275 275 275 275 275 275 276 276 276 275 276 276 275 274 274 274 275 276 277 278 279 280 280 280 281 281 281 282 283 283 283 283 282 282 281 281 281 281 281 280 279 279 278 277 276
255 254 253 253 253 253 253 254 255 256 257 258 259 260 261 262 263 264 265 266 267 268 269 270 270 271 271 271 271 271 271 271 272 272 273 273 274 274 275 275 275 274 274 274 273 273 274 274 274 274 275 276 276 276 276 276 277 277 278 279 279 279 279 279 280 280 279 280 281 281 282 282 282 282 282 282 281 280 279 279 278 278 277 276 275
257 256 256 256 256 256 256 256 257 258 258 259 259 260 261 261 262 262 263 264 265 266 267 268 269 270 270 269 269 269 269 270 271 271 271 272 273 274 274 274 274 274 274 274 274 274 274 274 275 275 275 275 276 277 277 277 277 277 278 278 279 279 279 279 279 279 278 278 279 279 280 280 280 281 281 281 280 279 279 278 278 277 276 275 274
257 257 257 257 257 257 257 258 258 259 259 259 259 260 260 261 261 262 262 263 263 264 265 265 266 267 267 268 268 269 269 269 270 271 271 272 272 273 274 274 274 274 274 275 275 275 275 275 275 275 275 275 275 276 277 277 277 277 276 277 277 278 278 279 279 279 279 279 279 278 278 278 278 278 278 279 279 279 279 279 278 278 277 277 276
259 259 258 258 258 258 259 259 260 261 261 261 261 261 261 261 262 262 262 262 262 262 262 262 262 262 264 266 267 268 269 269 270 271 272 273 274 274 275 275 275 275 276 276 277 277 277 276 276 276 275 275 276 276 277 277 276 276 276 275 275 276 277 278 278 279 279 279 279 279 279 278 278 277 277 277 277 277 277 277 277 277 276 275 275
264 264 264 263 263 263 263 263 263 264 265 265 266 265 265 265 265 265 265 265 265 264 263 261 261 260 261 263 265 267 269 271 272 273 273 274 275 275 276 275 276 276 276 277 278 278 278 278 277 276 276 277 278 278 277 277 277 276 276 275 275 275 276 277 278 278 278 278 278 278 278 278 278 277 277 276 276 276 276 276 275 274 273 272 272
267 268 268 268 268 268 268 268 269 269 270 270 271 272 272 272 272 272 272 272 272 271 269 267 265 265 264 264 265 267 269 271 273 275 276 276 276 276 276 276 275 276 276 276 276 277 277 277 277 277 277 277 277 277 276 276 276 276 276 276 276 276 277 277 278 278 279 279 279 279 278 278 278 277 277 276 276 276 276 276 275 275 273 272 272
269 270 270 271 272 272 273 273 274 274 275 275 276 276 277 277 277 277 277 277 277 277 275 273 272 271 270 269 267 267 268 270 272 274 275 275 275 275 275 275 275 275 275 274 274 274 274 275 276 277 277 276 276 275 275 275 275 275 276 277 277 278 278 278 278 279 279 279 279 279 279 279 278 277 277 276 275 275 275 275 275 275 275 274 274
270 270 271 272 272 273 273 274 275 275 276 276 277 277 277 278 278 279 279 279 279 279 279 278 277 277 276 275 272 270 269 269 270 270 271 271 272 272 272 272 273 273 272 272 271 271 271 271 273 274 275 275 275 275 274 274 274 274 275 275 276 277 277 278 278 278 279 279 278 278 278 277 277 276 276 276 275 275 275 275 275 275 275 276 275
269 270 271 272 272 273 273 274 274 275 275 276 276 277 277 278 278 279 279 280 280 280 281 281 281 280 280 279 278 277 276 275 274 272 271 270 271 272 272 272 272 272 272 271 271 270 270 270 270 271 271 272 273 273 273 274 274 274 274 275 275 276 276 277 278 278 278 278 277 277 277 276 275 275 274 274 274 274 274 275 275 276 276 276 276
268 269 270 271 271 272 273 273 274 274 275 275 275 276 276 276 276 277 277 277 278 278 278 278 278 279 279 278 278 278 278 278 277 276 275 273 274 275 276 275 275 275 275 274 273 272 271 270 270 270 270 270 271 271 272 273 273 274 274 275 275 276 276 276 277 277 277 277 277 277 277 276 275 274 274 273 273 273 273 274 274 275 275 276 276
268 268 269 269 270 270 271 271 272 272 273 273 274 274 274 274 274 275 275 276 276 276 276 276 277 277 277 277 277 277 278 278 278 278 277 277 278 278 277 276 276 276 276 275 274 273 272 272 271 271 270 270 270 271 272 272 273 274 275 276 276 276 276 277 277 278 278 278 278 277 277 276 276 275 274 273 273 272 272 272 273 273 274 275 276
270 271 271 271 271 272 272 273 273 274 274 274 275 275 275 276 276 276 277 277 277 277 277 277 278 278 277 278 278 278 278 279 279 278 278 277 277 277 276 275 275 275 275 274 273 273 272 272 272 271 270 270 270 271 272 273 274 275 276 276 276 277 277 278 279 279 279 278 278 277 276 276 275 275 274 274 274 273 273 273 273 273 273 274 275
272 272 272 273 273 273 273 274 274 274 275 275 275 276 276 276 277 277 277 277 277 277 277 277 277 277 277 277 277 277 278 278 278 278 277 276 275 274 274 274 274 273 273 273 273 272 272 272 271 271 270 270 271 271 272 273 274 275 276 276 277 277 278 278 277 277 277 276 276 276 275 275 275 275 275 275 275 275 274 274 274 274 274 274 274
271 271 271 272 272 272 273 273 274 274 274 275 275 275 276 276 276 276 276 276 277 277 277 276 276 276 277 277 277 277 277 277 276 276 275 274 273 272 272 272 272 272 272 273 273 273 273 272 272 272 272 272 272 273 273 274 274 275 276 277 277 276 275 274 274 274 274 274 275 275 276 276 276 276 276 276 275 275 274 274 274 274 274 274 274
270 270 271 271 272 272 273 273 274 274 274 275 275 275 275 276 276 276 276 276 276 276 277 277 277 277 277 277 277 277 276 276 275 274 274 273 272 270 270 270 270 270 270 270 272 272 273 273 273 273 273 274 274 275 275 276 276 277 278 277 275 273 272 271 271 271 272 274 275 276 276 277 277 277 277 276 276 275 274 274 274 274 274 274 274
270 270 271 271 271 272 272 273 273 274 274 274 275 275 275 276 276 276 277 276 276 276 277 277 278 278 277 277 276 276 275 274 274 273 272 271 270 269 269 268 268 268 268 269 269 270 271 272 272 273 274 275 276 277 279 280 282 282 281 278 275 273 272 271 270 270 271 271 272 273 275 276 277 277 278 278 277 277 276 276 276 276 276 276 276
269 269 270 270 271 271 272 272 273 273 274 275 275 276 276 276 276 276 277 277 277 277 277 277 278 278 278 277 276 274 273 272 272 271 270 270 269 268 268 268 267 267 267 267 267 268 269 270 271 272 273 274 276 279 281 282 283 283 281 279 278 278 277 275 274 272 271 271 271 271 272 273 275 276 277 277 278 278 277 277 277 277 277 278 278
268 269 269 270 270 271 272 272 273 274 274 275 275 276 276 276 276 276 276 277 278 278 278 278 277 277 276 275 274 273 272 271 270 269 269 268 268 268 268 267 267 266 265 265 265 266 267 269 270 271 272 274 276 278 280 281 281 280 279 278 278 279 279 278 276 275 274 273 273 273 273 274 274 275 276 277 277 277 277 277 277 277 277 278 278
269 269 270 270 271 272 272 273 274 274 275 275 276 276 276 276 276 276 277 277 278 279 279 278 277 276 275 274 274 273 273 271 270 269 268 268 268 268 267 266 265 264 264 264 264 265 266 267 268 270 272 274 275 277 278 278 277 277 277 277 277 276 276 275 274 274 275 274 274 275 275 276 276 277 277 277 277 277 277 277 277 277 277 278 278
271 271 271 272 272 273 273 274 274 274 275 275 275 276 276 276 276 277 278 279 278 278 277 277 277 275 275 274 274 274 273 271 270 269 269 268 268 267 266 264 263 263 263 263 264 265 265 265 266 268 270 273 275 277 276 275 275 275 276 275 275 273 271 270 270 271 272 272 273 275 276 276 277 277 278 278 278 278 278 277 277 277 277 277 277
272 272 273 273 273 274 274 275 275 275 276 276 276 276 277 277 278 279 279 279 278 277 276 276 276 275 274 273 273 273 272 271 270 269 268 268 267 266 264 263 261 261 261 261 261 262 262 263 265 267 270 273 276 276 274 273 274 274 274 273 272 270 268 268 268 269 269 270 272 273 274 275 276 277 277 277 277 278 277 277 277 277 277 276 275
274 274 274 274 275 275 276 276 276 276 276 277 277 277 278 279 280 280 280 279 278 278 277 276 276 276 275 274 272 271 271 271 270 268 267 266 265 263 262 261 260 259 258 258 259 261 262 264 266 269 271 273 273 272 271 271 272 272 271 269 266 265 265 266 267 267 267 268 269 271 272 274 275 275 276 277 277 277 277 277 277 277 276 275 275
275 275 275 276 276 276 276 277 277 277 277 278 278 279 280 281 281 281 280 280 280 279 278 278 278 277 276 275 273 272 270 269 268 266 265 264 262 261 260 259 259 259 258 258 259 260 261 263 264 266 268 269 270 269 267 266 266 266 264 260 259 260 263 265 265 265 265 266 268 269 271 272 273 274 275 276 277 277 277 277 276 276 274 274 274
275 276 276 276 277 277 277 278 278 278 279 280 280 281 282 283 283 283 282 281 281 280 279 279 278 277 276 275 274 272 270 268 266 265 264 263 262 261 260 259 258 258 259 260 259 259 259 259 261 262 265 267 268 267 265 263 261 258 255 253 255 258 261 262 262 262 263 265 266 268 269 271 272 274 275 276 277 277 276 276 275 274 272 272 272
275 276 277 277 278 278 278 279 279 280 281 281 282 283 284 284 283 283 282 282 281 280 280 279 278 277 276 275 273 272 269 268 267 266 266 265 264 263 262 261 258 258 258 258 258 256 256 257 258 261 263 265 265 264 262 258 254 250 249 251 254 257 259 259 259 260 262 264 265 266 268 269 271 272 274 275 275 274 274 273 273 271 271 270 270
276 276 277 277 278 279 279 280 281 281 282 283 283 284 284 283 283 282 282 281 281 280 280 279 277 276 275 274 272 270 269 268 267 266 265 264 263 262 261 260 259 258 256 255 255 255 255 255 257 260 262 263 263 262 257 251 246 246 247 250 253 255 255 255 256 258 261 262 264 265 266 267 269 270 271 272 272 272 272 271 270 269 269 269 268
276 277 277 278 278 279 280 280 281 282 282 283 283 283 283 282 282 282 282 281 281 280 280 278 277 276 274 273 272 270 269 268 267 266 265 263 263 262 261 261 260 259 257 255 254 255 256 257 257 259 260 261 259 255 248 243 242 244 247 250 251 251 251 252 254 257 259 261 262 263 264 265 266 267 268 269 269 269 269 268 268 267 267 267 267
277 277 278 278 279 279 280 281 281 282 282 282 282 282 282 282 282 282 281 281 281 281 280 278 277 276 274 273 272 271 270 269 268 266 265 264 263 262 261 260 259 258 257 256 255 255 256 257 257 256 255 253 249 243 238 236 239 243 248 250 250 249 250 252 254 256 258 258 259 260 261 262 264 265 265 266 266 266 266 266 266 266 266 265 265
276 277 278 278 279 280 281 281 281 281 282 282 282 282 282 282 282 282 281 281 281 281 280 279 277 276 275 274 273 271 269 268 266 265 263 262 261 259 258 257 256 256 256 257 257 256 256 256 255 252 249 244 239 234 231 232 237 244 249 251 249 249 250 252 254 255 255 256 257 258 259 260 261 262 262 263 263 264 263 264 264 264 264 263 263
277 277 278 279 280 280 281 281 281 281 282 282 283 283 283 283 283 282 282 281 281 281 280 279 278 278 277 276 274 272 269 267 266 264 262 261 261 260 259 257 256 256 256 256 257 256 255 253 250 247 244 240 236 233 233 236 242 248 252 253 252 252 252 252 252 252 253 254 255 256 257 258 259 259 260 260 261 261 261 262 262 262 262 261 261
278 279 279 280 280 280 280 280 280 281 281 282 283 283 283 283 283 283 283 282 282 281 280 280 279 279 278 276 274 271 269 267 265 264 263 262 262 262 261 260 258 257 256 255 255 254 253 250 248 245 242 240 238 238 240 244 248 251 253 254 254 254 251 250 250 251 251 252 253 254 255 255 256 256 257 258 258 259 259 260 260 260 260 260 259
278 279 280 280 280 280 280 279 280 280 280 281 282 283 284 284 284 283 283 283 282 282 281 280 279 278 276 275 273 270 268 266 263 262 262 261 261 260 260 259 258 257 256 255 254 252 251 248 246 244 243 243 243 243 245 247 248 250 252 253 253 252 250 249 249 249 249 250 251 252 252 253 253 254 255 256 256 257 257 257 258 258 258 258 257
279 280 280 280 280 280 279 279 279 279 280 281 282 283 284 285 285 284 284 283 283 282 281 280 279 278 276 274 272 270 268 266 263 261 259 259 258 258 258 257 256 254 253 253 251 250 247 245 244 244 245 245 246 247 247 247 248 249 250 251 251 250 249 248 247 247 248 248 249 250 251 251 251 251 252 253 254 254 255 255 256 256 256 256 256
280 281 280 280 280 280 280 280 280 280 281 282 283 283 284 285 285 285 284 284 284 283 282 280 279 278 276 274 272 269 267 266 265 263 260 258 257 256 255 255 254 253 251 250 249 247 245 244 244 245 245 245 245 245 246 247 247 248 249 248 248 247 246 246 245 245 246 247 248 248 249 249 249 249 250 251 252 252 253 254 254 255 255 255 255
Height
10617 10616 10616 10615 10615 10614 10613 10613 10613 10612 10611 10611 10611 10611 10611 10611 10610 10609 10609 10607 10606 10605 10605 10605 10605 10605 10605 10606 10606 10606 10606 10607 10606 10605 10605 10604 10603 10603 10603 10603 10603 10603 10604 10604 10604 10603 10602 10601 10600 10600 10600 10599 10598 10597 10597 10598 10599 10599 10597 10595 10595 10595 10595 10593 10592 10590 10588 10587 10586 10586 10587 10588 10588 10588 10589 10590 10589 10589 10589 10589 10589 10589 10588 10588 10588
10610 10610 10609 10609 10608 10607 10607 10606 10605 10604 10604 10604 10604 10604 10605 10605 10604 10603 10603 10602 10600 10600 10599 10598 10598 10598 10599 10599 10599 10599 10599 10599 10599 10598 10597 10596 10596 10596 10597 10597 10598 10598 10598 10598 10597 10597 10596 10595 10594 10594 10594 10593 10592 10589 10589 10590 10591 10591 10589 10587 10587 10587 10587 10586 10585 10584 10583 10582 10581 10580 10579 10580 10581 10581 10581 10582 10582 10582 10582 10582 10582 10582 10581 10581 10581
10601 10603 10603 10602 10601 10601 10600 10598 10596 10595 10595 10595 10596 10597 10598 10598 10597 10596 10596 10595 10594 10594 10593 10592 10592 10592 10592 10592 10592 10592 10592 10592 10591 10590 10589 10589 10589 10590 10591 10591 10592 10591 10591 10591 10590 10590 10589 10588 10587 10587 10587 10587 10585 10583 10582 10582 10583 10582 10581 10580 10579 10579 10578 10578 10578 10577 10576 10576 10575 10573 10572 10573 10574 10574 10574 10574 10573 10573 10575 10575 10575 10574 10573 10574 10574
10596 10598 10596 10595 10596 10597 10595 10592 10589 10587 10586 10586 10587 10588 10589 10590 10590 10589 10589 10588 10588 10588 10587 10586 10586 10586 10586 10586 10586 10586 10586 10585 10584 10583 10583 10583 10584 10584 10585 10586 10586 10585 10584 10584 10583 10582 10582 10581 10581 10580 10579 10579 10579 10578 10576 10575 10575 10573 10572 10573 10573 10571 10569 10569 10571 10570 10568 10567 10568 10567 10566 10565 10566 10566 10566 10566 10565 10565 10566 10567 10567 10566 10565 10565 10566
10593 10592 10590 10590 10592 10595 10594 10589 10584 10580 10577 10577 10578 10579 10580 10581 10582 10582 10582 10582 10581 10581 10580 10580 10580 10579 10579 10580 10580 10580 10579 10577 10576 10576 10577 10578 10578 10578 10578 10579 10579 10578 10577 10576 10575 10576 10575 10573 10573 10573 10572 10571 10571 10572 10571 10568 10567 10565 10563 10566 10567 10565 10562 10561 10563 10563 10561 10560 10560 10560 10560 10559 10558 10557 10558 10559 10558 10558 10558 10558 10559 10558 10557 10556 10556
10586 10587 10585 10585 10585 10588 10589 10584 10579 10573 10569 10570 10571 10572 10573 10573 10573 10574 10573 10574 10574 10574 10574 10574 10574 10574 10574 10574 10574 10573 10571 10569 10570 10571 10571 10572 10572 10572 10572 10572 10572 10571 10570 10569 10568 10568 10567 10565 10564 10565 10565 10564 10564 10565 10565 10562 10560 10557 10555 10556 10559 10559 10556 10554 10555 10555 10554 10553 10552 10552 10553 10552 10551 10550 10550 10551 10551 10551 10551 10551 10550 10550 10550 10549 10548
10578 10579 10579 10578 10577 10580 10580 10575 10572 10568 10564 10564 10566 10567 10567 10566 10565 10565 10565 10565 10567 10567 10568 10568 10568 10569 10568 10568 10566 10564 10563 10563 10564 10564 10564 10564 10565 10566 10566 10565 10564 10563 10563 10563 10562 10561 10560 10557 10556 10557 10558 10558 10557 10557 10558 10556 10554 10551 10549 10548 10550 10551 10550 10549 10549 10549 10547 10546 10545 10545 10546 10546 10545 10544 10543 10543 10544 10544 10544 10544 10543 10542 10542 10542 10541
10569 10568 10569 10570 10570 10573 10573 10568 10566 10564 10561 10560 10561 10561 10562 10560 10559 10558 10557 10558 10560 10561 10562 10562 10563 10564 10563 10562 10560 10557 10556 10556 10557 10556 10556 10556 10557 10559 10559 10557 10557 10557 10557 10557 10556 10554 10553 10551 10550 10550 10550 10550 10550 10549 10549 10549 10547 10546 10544 10542 10541 10541 10542 10541 10541 10542 10541 10540 10539 10539 10540 10539 10539 10538 10537 10536 10536 10536 10536 10536 10536 10536 10535 10534 10534
10562 10562 10562 10562 10564 10566 10566 10563 10561 10559 10557 10556 10555 10555 10555 10554 10553 10552 10551 10552 10554 10555 10555 10556 10557 10558 10558 10557 10554 10552 10551 10550 10550 10549 10548 10549 10550 10551 10551 10549 10550 10550 10550 10550 10549 10547 10546 10545 10544 10543 10542 10541 10542 10542 10541 10540 10539 10538 10537 10535 10534 10533 10533 10533 10533 10533 10534 10534 10533 10533 10533 10533 10531 10532 10531 10530 10530 10529 10528 10529 10529 10528 10528 10527 10527
10556 10557 10555 10554 10556 10558 10557 10556 10555 10553 10551 10549 10547 10547 10546 10545 10546 10546 10546 10547 10548 10548 10549 10549 10550 10550 10551 10551 10549 10547 10545 10544 10543 10543 10542 10542 10543 10544 10543 10542 10542 10542 10542 10544 10544 10542 10540 10538 10537 10536 10535 10534 10534 10534 10533 10532 10531 10531 10529 10527 10525 10524 10524 10524 10524 10525 10526 10527 10527 10527 10527 10526 10524 10523 10523 10523 10523 10522 10521 10521 10521 10520 10520 10520 10518
10549 10551 10548 10547 10548 10549 10549 10549 10548 10545 10544 10542 10542 10540 10537 10536 10537 10538 10539 10540 10540 10541 10543 10543 10544 10543 10543 10543 10542 10540 10539 10538 10537 10537 10537 10536 10536 10536 10536 10535 10534 10534 10534 10535 10537 10536 10535 10532 10531 10530 10528 10527 10527 10526 10525 10524 10523 10523 10522 10520 10517 10516 10515 10515 10516 10516 10517 10518 10519 10519 10519 10519 10517 10515 10515 10515 10515 10515 10514 10513 10513 10512 10512 10511 10509
10543 10545 10544 10542 10540 10540 10541 10542 10540 10538 10537 10538 10538 10535 10529 10526 10528 10530 10531 10532 10532 10534 10536 10537 10538 10538 10537 10536 10535 10533 10531 10530 10530 10530 10530 10530 10529 10529 10528 10528 10527 10526 10526 10526 10527 10528 10528 10526 10525 10524 10522 10522 10521 10520 10519 10518 10517 10516 10515 10514 10512 10510 10509 10508 10507 10507 10507 10508 10509 10509 10510 10510 10509 10508 10507 10507 10508 10507 10507 10506 10505 10505 10504 10502 10501
10538 10539 10539 10536 10533 10533 10534 10534 10533 10533 10534 10534 10534 10530 10524 10520 10521 10523 10524 10525 10526 10527 10529 10530 10530 10531 10530 10529 10527 10526 10524 10522 10522 10523 10522 10522 10522 10522 10520 10519 10518 10518 10518 10518 10518 10519 10520 10519 10517 10516 10516 10516 10515 10514 10513 10512 10511 10510 10509 10507 10506 10504 10503 10501 10500 10500 10499 10499 10499 10499 10500 10500 10499 10499 10499 10500 10500 10499 10499 10498 10497 10497 10495 10494 10493
10531 10530 10530 10529 10527 10527 10527 10527 10528 10528 10529 10529 10527 10524 10520 10517 10517 10517 10519 10520 10520 10520 10521 10521 10522 10522 10522 10521 10520 10519 10516 10515 10514 10514 10513 10513 10513 10513 10513 10512 10510 10510 10510 10510 10510 10510 10511 10511 10510 10509 10508 10508 10508 10507 10507 10506 10505 10504 10502 10500 10498 10497 10495 10494 10492 10491 10490 10490 10490 10489 10490 10490 10489 10488 10489 10490 10490 10490 10490 10489 10488 10487 10486 10484 10483
10522 10521 10522 10522 10521 10521 10521 10522 10522 10522 10522 10522 10521 10519 10516 10514 10513 10512 10513 10513 10513 10512 10512 10512 10512 10513 10513 10513 10513 10511 10508 10506 10506 10504 10503 10503 10503 10504 10505 10504 10503 10503 10502 10502 10502 10501 10501 10502 10502 10501 10500 10499 10499 10499 10499 10498 10497 10495 10493 10492 10489 10488 10487 10485 10483 10481 10480 10480 10480 10479 10480 10480 10479 10478 10478 10478 10479 10479 10479 10479 10477 10476 10475 10474 10473
10513 10513 10514 10514 10515 10515 10516 10517 10517 10516 10516 10515 10515 10513 10511 10510 10509 10507 10506 10506 10506 10504 10503 10502 10502 10503 10504 10505 10505 10503 10500 10497 10496 10495 10494 10493 10492 10493 10494 10495 10495 10495 10495 10494 10493 10491 10490 10492 10493 10492 10491 10491 10491 10490 10490 10489 10487 10485 10484 10482 10479 10479 10478 10476 10474 10472 10470 10469 10469 10468 10469 10469 10469 10468 10468 10468 10468 10468 10468 10468 10466 10465 10465 10464 10463
10504 10505 10505 10506 10507 10508 10509 10509 10508 10508 10508 10507 10507 10506 10506 10505 10504 10501 10500 10499 10498 10496 10494 10493 10493 10494 10495 10496 10496 10495 10492 10489 10487 10486 10484 10483 10483 10482 10483 10484 10485 10486 10487 10486 10484 10481 10480 10482 10483 10482 10480 10481 10481 10480 10479 10479 10478 10476 10474 10472 10470 10469 10468 10467 10465 10464 10462 10460 10459 10458 10458 10459 10459 10459 10458 10458 10458 10458 10457 10457 10455 10455 10455 10455 10454
10494 10496 10497 10498 10499 10500 10500 10499 10498 10498 10498 10498 10497 10498 10498 10497 10495 10493 10491 10490 10489 10487 10486 10485 10485 10485 10485 10485 10485 10485 10483 10480 10478 10477 10475 10474 10473 10472 10472 10473 10474 10475 10477 10476 10474 10472 10471 10471 10471 10471 10469 10469 10470 10468 10467 10468 10467 10465 10464 10462 10460 10459 10458 10457 10457 10456 10454 10453 10451 10450 10450 10450 10450 10449 10449 10449 10449 10449 10447 10447 10446 10446 10446 10445 10444
10484 10486 10488 10489 10490 10490 10489 10488 10486 10486 10486 10486 10486 10487 10487 10486 10484 10483 10482 10481 10480 10479 10477 10476 10476 10475 10474 10473 10473 10474 10473 10470 10468 10467 10466 10464 10463 10462 10462 10462 10462 10465 10466 10464 10462 10461 10461 10459 10458 10458 10457 10458 10458 10457 10456 10456 10456 10455 10455 10453 10451 10449 10448 10448 10448 10447 10446 10445 10443 10443 10442 10441 10441 10441 10440 10440 10440 10439 10438 10437 10437 10437 10436 10434 10433
10475 10476 10477 10478 10479 10478 10477 10476 10475 10474 10475 10475 10475 10476 10475 10474 10473 10472 10472 10471 10471 10471 10469 10468 10467 10466 10464 10461 10460 10461 10462 10460 10458 10456 10455 10454 10452 10452 10450 10449 10451 10454 10454 10452 10450 10449 10449 10449 10447 10445 10445 10446 10447 10447 10447 10446 10445 10445 10445 10444 10442 10439 10438 10437 10438 10437 10437 10436 10434 10434 10433 10433 10433 10432 10432 10431 10431 10430 10428 10428 10428 10427 10426 10424 10423
10465 10465 10465 10466 10467 10467 10466 10466 10465 10464 10463 10463 10463 10463 10463 10462 10462 10461 10460 10460 10460 10460 10459 10457 10457 10458 10456 10453 10451 10450 10450 10448 10447 10446 10444 10442 10441 10440 10438 10436 10438 10442 10442 10440 10438 10437 10437 10437 10435 10432 10432 10434 10436 10437 10437 10436 10435 10434 10434 10434 10433 10430 10428 10427 10427 10427 10427 10426 10425 10424 10424 10424 10424 10423 10423 10422 10421 10420 10419 10419 10419 10418 10416 10415 10414
10453 10454 10454 10454 10454 10454 10453 10453 10453 10452 10450 10449 10449 10449 10448 10448 10448 10447 10446 10445 10445 10446 10445 10444 10444 10446 10447 10446 10444 10443 10441 10439 10437 10434 10433 10432 10430 10429 10426 10424 10425 10429 10432 10430 10427 10425 10424 10423 10421 10419 10420 10423 10425 10425 10425 10424 10424 10423 10423 10423 10423 10422 10420 10418 10417 10417 10416 10415 10414 10413 10413 10413 10413 10413 10413 10412 10411 10410 10409 10409 10408 10407 10406 10406 10406
10441 10441 10441 10440 10440 10440 10440 10439 10439 10438 10437 10436 10436 10435 10433 10433 10432 10431 10430 10430 10430 10430 10430 10430 10429 10431 10434 10435 10435 10435 10434 10432 10428 10425 10422 10421 10419 10417 10414 10411 10412 10416 10420 10420 10417 10416 10413 10408 10404 10405 10409 10411 10412 10413 10412 10412 10411 10411 10411 10412 10412 10412 10411 10409 10408 10406 10405 10405 10404 10403 10402 10402 10401 10401 10402 10402 10401 10400 10398 10398 10397 10395 10395 10395 10395
10430 10429 10428 10427 10427 10427 10426 10425 10425 10425 10424 10424 10424 10422 10420 10418 10417 10417 10416 10415 10415 10414 10414 10415 10414 10416 10418 10419 10421 10425 10426 10423 10420 10418 10413 10408 10407 10406 10402 10398 10398 10402 10408 10409 10406 10406 10405 10399 10391 10391 10394 10396 10398 10399 10399 10399 10399 10399 10400 10401 10401 10401 10401 10399 10398 10396 10395 10395 10394 10392 10391 10390 10389 10389 10389 10390 10390 10389 10388 10387 10385 10384 10384 10383 10383
10419 10418 10417 10417 10416 10416 10414 10414 10413 10413 10412 10412 10411 10410 10408 10407 10405 10403 10401 10400 10399 10399 10399 10398 10398 10400 10401 10401 10403 10407 10411 10410 10410 10411 10407 10400 10395 10393 10391 10388 10386 10387 10392 10395 10393 10392 10393 10391 10385 10381 10380 10380 10382 10383 10384 10385 10386 10387 10388 10389 10390 10390 10390 10388 10387 10386 10385 10385 10383 10382 10381 10380 10379 10378 10377 10377 10377 10377 10377 10375 10374 10373 10373 10372 10371
10409 10408 10407 10406 10405 10404 10404 10403 10403 10402 10401 10400 10399 10398 10397 10395 10394 10392 10389 10388 10387 10386 10385 10385 10384 10384 10385 10386 10386 10388 10391 10393 10395 10397 10397 10392 10385 10381 10378 10376 10373 10373 10375 10378 10378 10378 10379 10379 10377 10373 10370 10368 10366 10366 10367 10369 10371 10373 10375 10377 10378 10378 10378 10377 10376 10376 10375 10374 10373 10372 10370 10369 10368 10367 10367 10366 10366 10366 10365 10364 10363 10363 10362 10361 10360
10399 10397 10396 10396 10395 10394 10393 10392 10391 10391 10390 10389 10388 10386 10385 10384 10383 10381 10379 10377 10375 10375 10374 10374 10373 10373 10372 10373 10373 10373 10374 10376 10377 10379 10380 10380 10377 10371 10365 10362 10361 10359 10358 10359 10361 10362 10363 10364 10363 10361 10359 10357 10354 10352 10352 10354 10356 10359 10361 10364 10366 10366 10365 10365 10364 10364 10362 10362 10362 10361 10359 10358 10356 10356 10355 10355 10355 10355 10354 10353 10353 10352 10351 10351 10350
10388 10386 10385 10384 10383 10382 10382 10381 10380 10379 10378 10376 10375 10374 10372 10371 10371 10370 10368 10365 10363 10363 10363 10362 10362 10361 10360 10359 10359 10359 10359 10360 10360 10361 10363 10366 10366 10358 10349 10348 10350 10347 10342 10341 10344 10345 10346 10348 10348 10346 10345 10343 10341 10339 10340 10340 10342 10344 10347 10351 10353 10352 10351 10351 10352 10351 10350 10350 10350 10349 10347 10346 10345 10344 10344 10344 10344 10344 10343 10343 10343 10342 10341 10341 10341
10375 10374 10372 10371 10370 10369 10368 10368 10367 10366 10364 10363 10361 10360 10358 10357 10357 10356 10353 10350 10349 10349 10350 10349 10348 10346 10346 10346 10345 10345 10345 10344 10343 10344 10346 10351 10353 10344 10332 10332 10337 10334 10327 10326 10328 10330 10332 10333 10333 10331 10329 10328 10327 10326 10327 10328 10329 10332 10336 10339 10339 10338 10338 10339 10339 10338 10338 10337 10337 10336 10334 10333 10332 10332 10332 10332 10333 10333 10333 10332 10332 10332 10331 10331 10331
10361 10360 10359 10358 10357 10356 10355 10354 10353 10352 10351 10350 10348 10346 10344 10343 10342 10341 10339 10336 10334 10334 10335 10335 10333 10332 10331 10332 10332 10332 10333 10330 10328 10328 10328 10332 10336 10330 10320 10317 10321 10320 10314 10311 10312 10315 10318 10319 10318 10315 10314 10314 10314 10315 10316 10317 10318 10321 10325 10327 10327 10327 10327 10327 10326 10326 10325 10324 10324 10322 10321 10320 10320 10320 10321 10321 10321 10322 10322 10322 10321 10321 10321 10320 10320
10348 10346 10345 10344 10343 10342 10341 10339 10338 10338 10337 10336 10335 10333 10331 10328 10327 10327 10326 10323 10320 10318 10318 10319 10319 10318 10317 10318 10317 10318 10318 10316 10313 10311 10311 10313 10316 10314 10308 10306 10306 10305 10303 10299 10298 10299 10302 10304 10304 10302 10300 10300 10301 10303 10304 10306 10308 10312 10316 10318 10318 10317 10315 10314 10313 10313 10312 10311 10311 10310 10309 10308 10309 10309 10310 10310 10310 10311 10311 10311 10311 10310 10310 10310 10310
10334 10333 10332 10331 10329 10328 10327 10325 10324 10323 10322 10321 10320 10319 10317 10315 10312 10311 10311 10310 10307 10304 10302 10302 10303 10303 10304 10304 10303 10303 10303 10301 10298 10296 10295 10296 10297 10296 10295 10295 10293 10292 10292 10290 10287 10286 10287 10289 10290 10289 10288 10288 10288 10290 10292 10295 10299 10303 10306 10307 10306 10304 10303 10303 10302 10301 10301 10301 10300 10299 10298 10297 10297 10298 10298 10298 10299 10299 10300 10300 10300 10300 10300 10300 10300
10321 10319 10318 10317 10315 10313 10312 10311 10309 10308 10307 10306 10305 10304 10303 10301 10299 10296 10294 10294 10293 10293 10291 10289 10287 10288 10289 10289 10288 10288 10287 10286 10284 10281 10280 10281 10281 10281 10282 10282 10281 10280 10282 10281 10278 10275 10275 10276 10276 10276 10276 10276 10276 10278 10281 10284 10288 10292 10294 10294 10292 10291 10292 10292 10293 10293 10292 10292 10291 10290 10289 10288 10287 10287 10287 10288 10288 10288 10289 10289 10289 10290 10290 10289 10290
10307 10306 10304 10302 10301 10299 10298 10297 10296 10294 10293 10292 10291 10290 10288 10287 10286 10284 10281 10279 10277 10277 10278 10278 10277 10275 10273 10273 10272 10272 10272 10272 10271 10268 10266 10266 10267 10268 10269 10270 10270 10271 10271 10269 10267 10265 10265 10265 10266 10265 10265 10265 10266 10269 10273 10275 10278 10281 10282 10281 10280 10279 10279 10280 10281 10283 10283 10283 10283 10282 10281 10280 10280 10279 10279 10279 10279 10279 10279 10279 10280 10280 10280 10280 10280
10293 10292 10291 10289 10287 10286 10285 10284 10283 10282 10280 10279 10278 10277 10275 10273 10271 10270 10269 10268 10265 10262 10262 10264 10265 10263 10260 10258 10257 10257 10258 10258 10258 10256 10254 10254 10255 10257 10259 10259 10259 10258 10258 10256 10255 10256 10257 10257 10255 10254 10254 10255 10258 10262 10266 10267 10269 10271 10273 10273 10272 10271 10269 10269 10270 10272 10273 10273 10272 10273 10273 10273 10272 10272 10272 10272 10271 10271 10271 10271 10271 10272 10272 10272 10272
10280 10279 10278 10276 10275 10274 10273 10272 10271 10270 10268 10267 10265 10263 10262 10260 10258 10257 10257 10258 10257 10253 10249 10248 10249 10249 10248 10245 10244 10244 10245 10246 10246 10245 10244 10244 10244 10246 10248 10248 10246 10245 10245 10245 10245 10247 10250 10249 10246 10243 10243 10245 10249 10255 10258 10259 10260 10262 10264 10265 10264 10264 10263 10262 10263 10264 10264 10263 10263 10264 10264 10264 10264 10264 10265 10264 10264 10263 10263 10264 10264 10264 10264 10264 10265
10267 10266 10265 10264 10263 10262 10261 10260 10259 10258 10257 10255 10253 10251 10249 10247 10246 10246 10246 10246 10245 10243 10239 10236 10235 10236 10236 10235 10234 10233 10233 10233 10234 10234 10233 10233 10234 10235 10236 10237 10236 10235 10235 10236 10237 10238 10240 10239 10235 10233 10233 10236 10241 10247 10250 10250 10252 10254 10256 10256 10256 10256 10255 10255 10256 10258 10257 10256 10256 10257 10257 10257 10257 10257 10257 10257 10256 10256 10256 10257 10257 10257 10258 10258 10258
10255 10254 10253 10252 10251 10251 10250 10249 10248 10247 10245 10243 10241 10239 10237 10237 10236 10236 10235 10234 10232 10231 10229 10226 10224 10224 10224 10225 10224 10223 10222 10222 10223 10223 10222 10222 10224 10224 10225 10226 10226 10225 10227 10228 10227 10227 10228 10227 10225 10226 10228 10231 10235 10240 10242 10242 10245 10247 10247 10247 10247 10247 10247 10248 10250 10251 10250 10249 10250 10251 10251 10251 10251 10251 10251 10250 10250 10250 10250 10250 10251 10251 10251 10251 10251
10244 10243 10242 10241 10240 10240 10239 10238 10237 10235 10233 10232 10230 10228 10227 10227 10227 10225 10223 10222 10221 10219 10218 10216 10215 10214 10214 10214 10214 10214 10213 10213 10212 10212 10211 10211 10212 10213 10214 10216 10216 10216 10217 10218 10217 10219 10220 10220 10219 10221 10222 10224 10228 10233 10235 10237 10238 10239 10239 10240 10239 10238 10238 10241 10243 10244 10243 10243 10244 10245 10245 10245 10245 10245 10245 10245 10245 10245 10244 10245 10245 10246 10246 10245 10245
10233 10232 10231 10230 10230 10229 10228 10227 10226 10224 10223 10222 10220 10218 10218 10217 10216 10214 10212 10211 10210 10208 10207 10206 10206 10205 10204 10203 10204 10204 10204 10203 10201 10200 10200 10201 10201 10202 10204 10207 10207 10207 10207 10209 10212 10214 10215 10214 10213 10212 10213 10215 10220 10225 10228 10230 10230 10230 10231 10232 10231 10230 10231 10234 10236 10236 10236 10237 10238 10239 10239 10239 10239 10239 10239 10239 10239 10239 10239 10240 10240 10240 10240 10240 10240
10223 10222 10221 10221 10220 10219 10218 10217 10216 10214 10213 10212 10210 10209 10208 10207 10205 10203 10202 10201 10199 10198 10198 10198 10196 10195 10194 10194 10194 10194 10193 10192 10191 10191 10191 10192 10193 10193 10195 10198 10199 10198 10199 10201 10205 10206 10206 10204 10204 10203 10205 10208 10213 10216 10219 10221 10222 10222 10223 10223 10222 10223 10226 10229 10229 10229 10229 10231 10232 10233 10233 10234 10233 10233 10234 10234 10234 10234 10235 10235 10235 10236 10236 10236 10236
10214 10213 10212 10211 10211 10210 10209 10207 10206 10205 10204 10202 10201 10200 10200 10198 10195 10194 10193 10192 10190 10190 10189 10189 10187 10187 10186 10185 10185 10184 10184 10183 10183 10183 10184 10185 10185 10186 10187 10188 10190 10191 10192 10194 10195 10196 10196 10196 10195 10196 10199 10202 10205 10208 10211 10213 10213 10214 10214 10214 10214 10217 10220 10222 10222 10222 10223 10225 10226 10227 10228 10228 10228 10228 10229 10229 10229 10230 10230 10231 10231 10231 10231 10232 10232
10205 10205 10204 10203 10202 10201 10200 10199 10198 10197 10195 10194 10193 10192 10191 10189 10187 10186 10185 10183 10182 10181 10181 10180 10179 10179 10178 10177 10177 10176 10176 10175 10176 10177 10177 10178 10178 10178 10178 10179 10181 10184 10185 10185 10186 10186 10187 10188 10190 10191 10193 10195 10198 10202 10205 10205 10204 10204 10205 10205 10207 10211 10214 10215 10215 10216 10217 10219 10221 10221 10222 10222 10222 10223 10224 10224 10224 10225 10226 10226 10227 10227 10227 10228 10228
10197 10196 10196 10195 10194 10193 10192 10191 10190 10189 10187 10186 10185 10184 10183 10181 10179 10178 10177 10176 10174 10174 10173 10172 10172 10172 10171 10170 10170 10169 10169 10169 10169 10170 10170 10170 10170 10170 10171 10172 10173 10175 10176 10177 10178 10179 10180 10181 10184 10186 10187 10189 10192 10195 10196 10195 10195 10194 10195 10197 10201 10205 10207 10208 10209 10210 10212 10214 10215 10216 10216 10217 10217 10218 10219 10219 10220 10221 10221 10222 10222 10223 10223 10223 10223
10189 10189 10188 10187 10187 10186 10185 10184 10183 10181 10180 10178 10177 10177 10176 10174 10172 10171 10170 10169 10167 10166 10166 10165 10164 10164 10164 10164 10163 10163 10163 10163 10163 10163 10163 10163 10163 10164 10165 10165 10166 10167 10167 10169 10171 10172 10173 10175 10178 10179 10180 10182 10185 10186 10187 10187 10186 10185 10186 10190 10195 10199 10200 10202 10204 10205 10207 10209 10210 10210 10211 10212 10212 10213 10214 10215 10215 10216 10217 10217 10218 10218 10219 10219 10219
10182 10182 10181 10180 10180 10179 10178 10177 10176 10174 10173 10171 10170 10169 10169 10167 10165 10164 10163 10162 10161 10160 10159 10158 10158 10157 10158 10158 10157 10157 10157 10156 10157 10157 10157 10156 10156 10157 10158 10159 10160 10160 10160 10162 10163 10165 10167 10169 10171 10172 10173 10175 10177 10178 10178 10177 10176 10176 10180 10185 10190 10193 10195 10197 10198 10200 10202 10203 10204 10205 10206 10206 10208 10209 10209 10210 10210 10211 10212 10213 10213 10214 10215 10215 10216
10175 10175 10175 10174 10173 10172 10171 10170 10169 10168 10167 10165 10163 10162 10162 10161 10159 10157 10156 10156 10155 10154 10153 10152 10152 10152 10152 10151 10151 10151 10151 10151 10151 10151 10151 10151 10151 10151 10152 10153 10154 10154 10155 10156 10157 10159 10161 10163 10164 10164 10165 10167 10169 10170 10170 10169 10170 10173 10177 10181 10185 10188 10190 10192 10193 10195 10196 10197 10198 10199 10200 10201 10203 10204 10204 10205 10206 10207 10208 10208 10209 10210 10211 10211 10212
10169 10169 10168 10167 10166 10166 10164 10163 10163 10162 10161 10159 10157 10155 10155 10155 10154 10152 10151 10150 10149 10148 10147 10147 10146 10146 10146 10146 10145 10145 10145 10145 10145 10145 10145 10146 10146 10146 10146 10147 10148 10149 10150 10151 10152 10153 10154 10156 10157 10158 10159 10160 10162 10164 10164 10166 10168 10171 10174 10177 10180 10183 10185 10186 10188 10189 10190 10192 10193 10194 10195 10197 10198 10199 10200 10201 10202 10203 10203 10204 10205 10206 10207 10207 10208
10164 10163 10162 10161 10160 10159 10159 10158 10157 10156 10155 10154 10152 10150 10149 10149 10148 10147 10146 10145 10144 10143 10142 10142 10142 10141 10141 10141 10140 10140 10140 10140 10141 10140 10140 10140 10141 10141 10142 10142 10143 10144 10144 10145 10146 10148 10149 10151 10151 10152 10153 10155 10157 10159 10161 10164 10166 10168 10170 10173 10176 10178 10179 10181 10182 10184 10185 10186 10188 10189 10190 10192 10193 10194 10195 10196 10197 10198 10199 10200 10201 10202 10203 10203 10204
10158 10157 10156 10155 10154 10154 10153 10152 10151 10151 10150 10149 10147 10145 10143 10143 10142 10142 10141 10140 10139 10138 10137 10137 10137 10136 10136 10136 10136 10135 10135 10135 10136 10136 10136 10136 10136 10137 10137 10138 10138 10139 10140 10140 10142 10143 10144 10145 10146 10147 10148 10150 10153 10155 10157 10159 10162 10164 10166 10169 10171 10173 10174 10175 10177 10178 10179 10181 10183 10184 10186 10187 10189 10190 10191 10192 10193 10194 10195 10196 10197 10198 10199 10199 10200
10152 10151 10151 10150 10149 10148 10147 10147 10146 10145 10144 10143 10142 10141 10139 10137 10137 10137 10136 10135 10134 10133 10133 10132 10132 10132 10131 10131 10131 10131 10131 10131 10131 10131 10131 10131 10132 10132 10133 10133 10134 10134 10135 10136 10137 10138 10139 10140 10141 10143 10145 10147 10149 10151 10153 10155 10157 10159 10161 10163 10165 10167 10168 10170 10171 10173 10174 10176 10178 10179 10181 10182 10184 10185 10186 10187 10189 10190 10191 10192 10193 10194 10194 10195 10196